Погода Спас-Деменск

Погода Спас-Деменск : погода сейчас, прогноз погоды и архив. Всё, что Вы хотите узнать о погоде Спас-Деменск!

Поиск расширенной информации на нашем сайте:

Другие новости

Новости СМИ2

Главная страница сайта

Новости сайта

03.07.2017

Напоминаем, что на нашем специализированном сайте Метеоцентр.Азия вы можете получить высокодетализированные автоматические прогнозы погоды по пунктам России, СНГ и мира в авиационном формате (включающие направление и скорость ветра, видимость, явления погоды, количество и форму облачности, нижнюю и верхнюю границу облачности).


Погода Спас-Деменск - сегодня

Время (UTC), дата Ветер
(°,м/с) 
Видим.   Явления Облачность Т
(°С)
Тd
(°С)
f(%) Тe
(°С)
Pmin
(гПа)
dP
(гПа)
Po
(мм)
O2
(г/м3)
Тmin Tmax R s Состояние
почвы
12 20.10.17 340 (С) 15000 м    6/6 600 м 
[Cu med, cong]
+8.4 -1.3 50 +9  1022.8  -0.6  745  291           
15 20.10.17 290 (З) 15000 м    4/4 600 м 
[Sc]
+2.8 -0.4 79 +4  1023.1  -0.3  745  297    +9       
18 20.10.17 тихо ()   12000 м    3/3 600 м 
[Sc]
-1 -1.7 95 -1  1023.5  745  302    +9       
21 20.10.17 320 (СЗ) 9000 м  дымка  8/8 600 м 
[Sc]
-0.3 -0.9 96 1023.4  0.1  745  301           
00 21.10.17 340 (С) 10 км    4/4 600 м 
[Sc]
+0.5 -1.4 87 +1  1022.7  -0.5  745  300           
03 21.10.17 350 (С) 12000 м    ясно 
-1.7 -2.1 97 -1  1022.7  -0.3  744  302  -2         
06 21.10.17 310 (СЗ) 3000 м  дымка  3/0 верхняя 
[Ci sp]
-1.3 -1.7 97 -1  1022.5  -0.1  744  302  -4.3        замёрзшая 
09 21.10.17 010 (С) 15000 м    ясно 
+5.6 -2.2 57 +6  1021.3  -0.5  744  294           
12 21.10.17 360 (С) 15000 м    8/8 600 м 
[Sc]
+6.7 -1.8 55 +7  1019.6  -1.5  743  292           
15 21.10.17 020 (С) 15000 м    6/6 600 м 
[Sc]
+3.2 -0.6 76 +4  1019.8  -0.2  743  296    +7.1       
18 21.10.17 040 (СВ) 10 км    8/8 600 м 
[Sc]
+1.7 -1.2 81 +1  1020  0.1  743  298    +7.1       
21 21.10.17 040 (СВ) 10 км    8/8 600 м 
[Sc]
+0.8 -1.6 84 1020.3  0.1  743  299           
00 22.10.17 030 (СВ) н/о    н/о 
-0.2 -2.1 87 1020.4  0.1  743  300           
03 22.10.17 010 (С) 10 км    6/6 600 м 
[Sc]
-0.8 -3.7 81 1020.9  0.4  743  301  -0.8         
06 22.10.17 030 (СВ) 15000 м    ясно 
-0.5 -4 77 -1  1021.6  0.7  744  301  -1.8        замёрзшая 
09 22.10.17 300 (СЗ) 15000 м    6/6 600 м 
[Sc]
+1.8 -5.9 57 +3  1021.4  744  298           
12 22.10.17 300 (СЗ) 15000 м    4/0 2000 м средняя 
[Ac trans]
+3.7 -6.9 46 +3  1020.4  -0.7  743  296           
15 22.10.17 тихо ()   15000 м    ясно 
-1.2 -5.6 72 -1  1020.5  -0.5  743  301    +3.9       
18 22.10.17 тихо ()   50000 м    ясно 
-4.7 -6.1 90 -5  1021  0.1  743  305    +3.9       
21 22.10.17 тихо ()   15000 м    ясно 
-6.5 -7.1 95 -7  1021.2  743  307           
00 23.10.17 тихо ()   15000 м    ясно 
-7.5 -8.1 95 -8  1021.4  0.1  743  309           
03 23.10.17 тихо ()   15000 м    ясно 
-8.2 -8.8 95 -8  1021.7  0.3  743  310  -8.4         
06 23.10.17 тихо ()   15000 м    6/4 600 м верхняя 
[Sc|Ci fib]
-4 -5.1 92 -4  1021.9  0.6  744  305  -8.4        замёрзшая 
09 23.10.17 310 (СЗ) 15000 м    4/3 600 м верхняя 
[Sc|Ci fib]
+3.3 -4.6 56 +4  1021.7  0.6  744  297           
12 23.10.17 030 (СВ) 15000 м    8/8 600 м 
[Sc]
+2.9 -3.9 61 +2  1022.4  0.6  745  297           
Время (UTC), дата Ветер
(°,м/с) 
Видим.   Явления Облачность Т
(°С)
Тd
(°С)
f(%) Тe
(°С)
Pmin
(гПа)
dP
(гПа)
Po
(мм)
O2
(г/м3)
Тmin Tmax R s Состояние
почвы

Для получения пояснительной информации подведите курсор к названию столбца.

ПОГОДА Спас-Деменск - архив

Всё, что Вы хотите узнать о погоде Спас-Деменск - удобно и подробно!

Выберите нужную дату (начиная с 1 января 2015* года) и нажмите кнопку "Найти".
Будут отображены архивные сводки погоды по пункту Спас-Деменск, начиная с указанной даты.


Отображать данные в формате CSV (для использования в таблицах Excel)


Внимание! Наш архив погоды предназначен исключительно для личного некоммерческого использования в познавательных целях. Если Вам необходимы официальные справки о состоянии погоды (для производственных, юридических, коммерческих и т.п. целей), обращайтесь в органы Росгидромета.

*Примечание: данная дата относится к архиву по метеостанциям СССР (Россия, СНГ, Балтия).
Архив по метеостанциям Зарубежной Европы и Азии (кроме Китая) хранится 10 дней, по другим регионам земного шара (Китай, Африка, Америка, Австралия, Океания) - 1 день.

Спас-Деменск - район местоположения метеостанции


Название, широта, долгота, высота метеостанции:
Спас-Деменск 54.4°ш. 34°д. 238 м над ур. моря [Российская Федерация]

Дополнительная информация

В oтличие oт бoльшинства пoгoдных сайтoв мы публикуем пoдрoбную метеoинфoрмацию в детальнoм прoфессиoнальнoм фoрмате.

Характеристики температуры и влажнoсти вoздуха измеряются на высoте 2 м в тени вдали oт зданий и деревьев.
Скoрoсть ветра измеряется на высoте 10 м (на урoвне рoста челoвека скoрoсть ветра ниже в 1.5-2 раза). Если метеoстанция нахoдится в гoрoде или в лесу, тo скoрoсть ветра занижена на 2-4 м/с пo сравнению с oткрытым местoм. Скoрoсть ветра над акватoриями крупных рек и oзёр, а также на вершинах хoлмoв на 2-5 м/с выше, чем в oбычных услoвиях.
Атмoсфернoе давление в разных тoчках местнoсти мoжет значительнo oтличаться oт давления на метеoстанции, в зависимoсти oт услoвий рельефа (при пoдъёме на 10 м давление пoнижается примернo на 1 мм рт.ст.).